User: anonymous   Login
Location: Unspecified
(0.0000°N, 0.0000°E)
Time: 21:15:40
(UTC+00:00)
Language:

LQSAT - Orbit

View from above orbital plane
View from above orbital plane
View from above satellite
View from above satellite

Ground track
Ground track

The orbit data is extracted from the following two-line orbital elements,

1 40958U 15057A   17141.82277332 +.00000037 +00000-0 +13608-4 0  9994
2 40958 097.9781 217.6004 0018905 146.7174 213.5214 14.72963314087230
Epoch (UTC): 21 May 2017 19:44:47
Eccentricity: 0.0018905
inclination: 97.9781°
perigee height: 638 km
apogee height: 665 km
right ascension of ascending node: 217.6004°
argument of perigee: 146.7174°
revolutions per day: 14.72963314
mean anomaly at epoch: 213.5214°
orbit number at epoch: 8723

The dashed part of the orbit path shows where the satellite is in the earth's shadow,  

DLR